User: anonymous   Login
Location: S�tio Afonso Gruber
(26.1760°S, 49.5250°W)
Time: 15:19:43
(UTC+00:00)
Language:

Cosmos 1869 Rocket - Orbit

View from above orbital plane
View from above orbital plane
View from above satellite
View from above satellite

Ground track
Ground track

The orbit data is extracted from the following two-line orbital elements,

1 18215U 87062B   20225.42776186  .00000052  00000-0  34207-5 0  9990
2 18215  82.5119 283.5956 0019026 290.2561  84.2340 14.83224568786764
Epoch (UTC): 12 August 2020 10:15:58
Eccentricity: 0.0019026
inclination: 82.5119°
perigee height: 606 km
apogee height: 632 km
right ascension of ascending node: 283.5956°
argument of perigee: 290.2561°
revolutions per day: 14.83224568
mean anomaly at epoch: 84.2340°
orbit number at epoch: 78676

The dashed part of the orbit path shows where the satellite is in the earth's shadow,  

DLR